Du Bois, PA

8:51 AM EST on December 14, 2019 (GMT -0500)
Du Bois-Jefferson County

Weather History for KDUJ - October, 2019

Change the Weather History Date:

Thursday, October 24, 2019

  Actual Average Record
Temperature  
Mean Temperature 54 °F 47 °F  
Max Temperature 66 °F 56 °F 78 °F (1963)
Min Temperature 41 °F 37 °F 16 °F (1969)
Degree Days  
Heating Degree Days 12 18  
Month to date heating degree days 319 359  
Since 1 July heating degree days 422 605  
Cooling Degree Days 0 0  
Month to date cooling degree days 23 0  
Year to date cooling degree days 430 360  
Growing Degree Days 4 (Base 50)    
Moisture  
Dew Point 32 °F    
Average Humidity 47    
Maximum Humidity 68    
Minimum Humidity 29    
Precipitation  
Precipitation 0.00 in 0.09 in 0.83 in (1971)
Month to date precipitation 3.00 2.40  
Year to date precipitation 39.40 35.64  
Sea Level Pressure  
Sea Level Pressure 30.23 in    
Wind  
Wind Speed 6 mph ()    
Max Wind Speed 21 mph    
Max Gust Speed 27 mph    
Visibility 10.0 miles    
Events      
T = Trace of Precipitation, MM = Missing Value Source: Averaged Metar Reports

Daily Weather History Graph

Daily Weather History Graph

Search for Another Location

Airport or City:

Astronomy

Oct. 24, 2019 Rise Set
Actual Time 7:37 AM EDT 6:21 PM EDT
Civil Twilight 7:08 AM EDT 6:50 PM EDT
Nautical Twilight 6:36 AM EDT 7:22 PM EDT
Astronomical Twilight 6:04 AM EDT 7:54 PM EDT
Moon 3:01 AM EDT (10/24) 4:51 PM EDT (10/24)
Length of Visible Light 11h 41m
Length of Day
10h 44m
Waning Crescent, 17% of the Moon is Illuminated
Oct 24
Waning Crescent
Oct 27
New
Nov 4
First Quarter
Nov 12
Full
Nov 19
Last Quarter

Hourly Weather History & Observations

Time (EDT) Temp. Windchill Dew Point Humidity Pressure Visibility Wind Dir Wind Speed Gust Speed Precip Events Conditions
12:53 AM 41.0 °F 37.1 °F 28.9 °F 62% 30.19 in 10.0 mi SW 5.8 mph - N/A   Clear
1:53 AM 44.1 °F 42.5 °F 28.9 °F 55% 30.19 in 10.0 mi SW 3.5 mph - N/A   Clear
2:53 AM 42.1 °F 38.4 °F 28.9 °F 60% 30.21 in 10.0 mi SW 5.8 mph - N/A   Clear
3:53 AM 42.1 °F 38.4 °F 28.9 °F 60% 30.21 in 10.0 mi SW 5.8 mph - N/A   Clear
4:53 AM 43.0 °F 40.3 °F 28.0 °F 56% 30.22 in 10.0 mi SSW 4.6 mph - N/A   Partly Cloudy
5:53 AM 43.0 °F 41.3 °F 28.0 °F 56% 30.24 in 10.0 mi South 3.5 mph - N/A   Clear
6:53 AM 44.1 °F 41.5 °F 28.0 °F 53% 30.24 in 10.0 mi South 4.6 mph - N/A   Clear
7:53 AM 44.1 °F 40.8 °F 28.0 °F 53% 30.24 in 10.0 mi SSW 5.8 mph - N/A   Clear
8:53 AM 46.9 °F - 30.0 °F 52% 30.27 in 10.0 mi SSW 9.2 mph - N/A   Clear
9:53 AM 52.0 °F - 30.0 °F 43% 30.27 in 10.0 mi SSW 9.2 mph - N/A   Clear
10:53 AM 55.0 °F - 30.9 °F 40% 30.26 in 10.0 mi SW 16.1 mph 24.2 mph N/A   Clear
11:53 AM 59.0 °F - 32.0 °F 36% 30.26 in 10.0 mi SW 15.0 mph 20.7 mph N/A   Clear
12:53 PM 62.1 °F - 30.9 °F 31% 30.23 in 10.0 mi SW 16.1 mph 20.7 mph N/A   Clear
1:53 PM 64.0 °F - 34.0 °F 33% 30.21 in 10.0 mi SW 18.4 mph 25.3 mph N/A   Clear
2:53 PM 64.9 °F - 32.0 °F 29% 30.20 in 10.0 mi SW 18.4 mph 25.3 mph N/A   Clear
3:53 PM 63.0 °F - 32.0 °F 31% 30.20 in 10.0 mi WSW 16.1 mph 19.6 mph N/A   Overcast
4:53 PM 63.0 °F - 34.0 °F 34% 30.21 in 10.0 mi SW 8.1 mph - N/A   Overcast
5:53 PM 61.0 °F - 34.0 °F 36% 30.21 in 10.0 mi SW 6.9 mph - N/A   Clear
6:53 PM 59.0 °F - 33.1 °F 38% 30.22 in 10.0 mi SW 3.5 mph - N/A   Clear
7:53 PM 55.9 °F - 33.1 °F 42% 30.24 in 10.0 mi Calm Calm - N/A   Clear
8:53 PM 54.0 °F - 37.9 °F 55% 30.26 in 10.0 mi North 5.8 mph - N/A   Clear
9:53 PM 53.1 °F - 37.9 °F 57% 30.27 in 10.0 mi NNE 3.5 mph - N/A   Overcast
10:53 PM 53.1 °F - 37.9 °F 57% 30.27 in 10.0 mi Calm Calm - N/A   Overcast
11:53 PM 48.0 °F - 37.9 °F 68% 30.27 in 10.0 mi NNE 3.5 mph - N/A   Clear